Regional Weather Roundup
Issued by NWS

Home | Current Version | Previous Version | Graphics & Text | Print | Product List | Glossary On
Versions: 1 2 3 4 5 6 7 8 9 10 11 12 13 14 15 16 17 18 19 20 21 22 23 24 25 26 27 28
000
ASUS45 KCYS 262110
RWRWY

WYOMING REGIONAL WEATHER ROUNDUP
NATIONAL WEATHER SERVICE CHEYENNE WY
200 PM MST SUN FEB 26 2017

NOTE:  "FAIR" INDICATES FEW OR NO CLOUDS BELOW 12,000 FEET
WITH NO SIGNIFICANT WEATHER AND/OR OBSTRUCTIONS TO VISIBILITY.

WYZ001-262200-
YELLOWSTONE NATIONAL PARK

CITY           SKY/WX    TMP DP  RH WIND       PRES   REMARKS
LK YELLOWSTONE   N/A     16   4  59 VRB6      29.66F WCI   7
W YELLOWSTONE  NOT AVBL

$$
WYZ002>013-054>058-071-098>099-262200-
NORTHERN WYOMING

CITY           SKY/WX    TMP DP  RH WIND       PRES   REMARKS
JACKSON        PTSUNNY   21  12  68 S18       29.72F WCI   6
CODY           FAIR      34   2  25 W12G18    29.67F WCI  25
GREYBULL       FAIR      32  10  40 S10       29.74F WCI  24
WORLAND        FAIR      30   9  41 VRB3      29.73F
SHERIDAN       PTSUNNY   34   8  33 SE13G20   29.70F WCI  25
BUFFALO        FAIR      29   7  39 S8        29.69F WCI  21
GILLETTE       FAIR      32   7  35 SW9       29.71S WCI  24
HULETT         MOCLDY    32   9  37 NW9       29.71F WCI  24
NEWCASTLE      FAIR      25  10  54 SE8       29.78F WCI  16

$$
WYZ014>020-022>026-101>103-262200-
CENTRAL WYOMING

CITY           SKY/WX    TMP DP  RH WIND       PRES   REMARKS
BIG PINEY      FAIR      11   3  70 CALM      29.76F
PINEDALE       MOCLDY    10   1  67 E3        29.77F
DUBOIS         MOCLDY    21   3  45 W21G32    29.61F WCI   6
LANDER         FAIR      23   3  42 CALM      29.69F
RIVERTON       FAIR      23   3  42 SW6       29.70F WCI  16
CASPER         FAIR      24   9  52 SW28G38   29.74F WCI   7
DOUGLAS        FAIR      25  11  55 W20       29.76S WCI  11

$$
WYZ021-027>030-104>119-262200-
SOUTHERN WYOMING

CITY           SKY/WX    TMP DP  RH WIND       PRES   REMARKS
EVANSTON       FAIR      20   6  55 SW20      29.74F WCI   4
FORT BRIDGER   FAIR      24   8  51 W12       29.79F WCI  13
ROCK SPRINGS   FAIR      21   6  52 W14       29.79F WCI   8
DIXON            N/A     27   3  36 SW14G22   29.85F WCI  15
RAWLINS        FAIR      21   7  54 SW20G36   29.76F WCI   6
SARATOGA       FAIR      25   0  33 SW16G22   29.78F WCI  12
LARAMIE        FAIR      24   4  42 SW23G31   29.68F WCI   9
CHEYENNE       FAIR      25  12  58 S10       29.74F WCI  15
TORRINGTON     FAIR      30  11  45 W13       29.79F WCI  20
PINE BLUFFS    FAIR      32  10  40 S7G18     29.79F WCI  26

$$




USA.gov is the U.S. government's official web portal to all federal, state and local government web resources and services.